Tracking 27107 objects as of 21-Mar-2023
HD Live streaming from Space Station
objects crossing your sky now

STARLINK-3931

Track STARLINK-3931 now!
10-day predictions
STARLINK-3931 is classified as:


NORAD ID: 52548
Int'l Code: 2022-051R
Perigee: 545.9 km
Apogee: 547.9 km
Inclination: 53.2 °
Period: 95.4 minutes
Semi major axis: 6917 km
RCS: Unknown
Launch date: May 13, 2022
Source: United States (US)
Launch site: AIR FORCE WESTERN TEST RANGE (AFWTR)
Your satellite tracking list
Your tracking list is empty




NASA's NSSDC Master Catalog

Two Line Element Set (TLE):
1 52548U 22051R   23079.91115774  .00000446  00000-0  46109-4 0  9998
2 52548  53.2154 318.8873 0001453  80.5539 279.5617 15.08840399 47754
Source of the keplerian elements: AFSPC